Tracking 23731 objects as of 26-Sep-2021
HD Live streaming from Space Station
objects crossing your sky now

STARLINK-2632

Track STARLINK-2632 now!
10-day predictions
STARLINK-2632 is classified as:


NORAD ID: 48448
Int'l Code: 2021-040W
Perigee: 553.9 km
Apogee: 554.9 km
Inclination: 53.1 °
Period: 95.6 minutes
Semi major axis: 6925 km
RCS: Unknown
Launch date: May 9, 2021
Source: United States (US)
Launch site: AIR FORCE EASTERN TEST RANGE (AFETR)
aabbcc
Your satellite tracking list
Your tracking list is empty




NASA's NSSDC Master Catalog

Two Line Element Set (TLE):
1 48448U 21040W   21268.31876886 -.00000491  00000-0 -14098-4 0  9993
2 48448  53.0539 282.6661 0000734  97.5479 262.5594 15.06394232 21495
Source of the keplerian elements: AFSPC